Regional Weather Roundup
Issued by NWS

Home | Current Version | Previous Version | Graphics & Text | Print | Product List | Glossary On
Versions: 1 2 3 4 5 6 7 8 9 10 11 12 13 14 15 16 17 18 19 20 21 22 23 24 25 26 27 28 29 30 31 32 33 34 35 36 37 38 39 40 41 42 43 44 45 46 47 48 49 50
000
ASUS45 KCYS 171410
RWRWY

WYOMING REGIONAL WEATHER ROUNDUP
NATIONAL WEATHER SERVICE CHEYENNE WY
700 AM MST WED JAN 17 2018

NOTE:  "FAIR" INDICATES FEW OR NO CLOUDS BELOW 12,000 FEET
WITH NO SIGNIFICANT WEATHER AND/OR OBSTRUCTIONS TO VISIBILITY.

WYZ001-171500-
YELLOWSTONE NATIONAL PARK

CITY           SKY/WX    TMP DP  RH WIND       PRES   REMARKS
LK YELLOWSTONE   N/A      9   6  88 CALM      30.40R
W YELLOWSTONE  NOT AVBL

$$
WYZ002>013-054>058-071-098>099-171500-
NORTHERN WYOMING

CITY           SKY/WX    TMP DP  RH WIND       PRES   REMARKS
JACKSON        FAIR       3   0  87 N5        30.43  WCI  -6
CODY           FAIR      27  16  63 NE3       30.27R
GREYBULL       FAIR      -1  -5  82 SE6       30.33S WCI -13
WORLAND        FAIR      -2  -6  83 E5        30.34R WCI -12
SHERIDAN       FAIR      20  11  68 S3        30.27R
BUFFALO        FAIR      33  10  38 N7        30.25R WCI  27
GILLETTE         N/A     14   7  73 MISG      30.25R
HULETT         FAIR      19   7  58 SW7       30.25R WCI  10
NEWCASTLE      FAIR      18   1  49 N13       30.24R WCI   4

$$
WYZ014>020-022>026-101>103-171500-
CENTRAL WYOMING

CITY           SKY/WX    TMP DP  RH WIND       PRES   REMARKS
BIG PINEY      FAIR       6   3  87 NW6       30.33S WCI  -4
PINEDALE       FAIR       1  -4  78 E5        30.32R WCI  -8
DUBOIS         FAIR      28  19  69 NW12      30.29R WCI  18
LANDER         FAIR       9   7  92 SE6       30.31R WCI  -1
RIVERTON       FAIR       7   4  87 E5        30.32R WCI  -2
CASPER         FAIR      20   9  62 W12       30.30R WCI   8
DOUGLAS        FAIR      13   7  77 N9        30.27R WCI   1

$$
WYZ021-027>030-104>119-171500-
SOUTHERN WYOMING

CITY           SKY/WX    TMP DP  RH WIND       PRES   REMARKS
EVANSTON       MOCLDY    23  18  81 NE7       30.36R WCI  15
FORT BRIDGER   FAIR      27  20  76 W7        30.38R WCI  20
ROCK SPRINGS   MOCLDY    20  12  71 W7        30.34R WCI  11
DIXON            N/A      9   2  74 CALM      30.40R
RAWLINS        FAIR       8   2  76 CALM      30.32S
SARATOGA       FAIR      14   1  57 CALM      30.34R
LARAMIE        FAIR       4  -5  66 CALM      30.26R
CHEYENNE       FAIR      18   0  45 NW6       30.22R WCI  10
TORRINGTON     FAIR       5   1  83 NW7       30.23S WCI  -7

$$



USA.gov is the U.S. government's official web portal to all federal, state and local government web resources and services.